Regional Weather Roundup
Issued by NWS Goodland, KS

Home | Current Version | Previous Version | Graphics & Text | Print | Product List | Glossary On
Versions: 1 2 3 4 5 6 7 8 9 10 11 12 13 14 15 16 17 18 19 20 21 22 23 24 25 26 27 28 29 30 31 32 33 34 35 36 37 38 39 40 41 42 43 44 45 46 47 48 49 50
000
ASUS43 KGLD 221459
RWRGLD

GOODLAND FORECAST AREA HOURLY WEATHER ROUNDUP
NATIONAL WEATHER SERVICE GOODLAND KS
800 AM MST THU FEB 22 2018

...OFFICIAL OBSERVATIONS...

CITY           SKY/WX    TMP DP  RH WIND       PRES   REMARKS
GOODLAND KS    CLOUDY    19   8  62 S14       30.15F WCI   6
HILL CITY KS   CLOUDY    21  21 100 E7        30.29F FOG
IMPERIAL NEB   CLOUDY    20  13  74 SE8       30.20R
MCCOOK NEB     CLOUDY    21  14  74 SE9       30.25F
AKRON CO       CLOUDY    15   7  70 SE16      30.06S WCI  -1
BURLINGTON CO  FAIR      14   6  70 SE10      30.11F WCI   1
LIMON CO       CLOUDY    13   6  74 S12       30.03R WCI  -1
$$

...UNOFFICIAL OBSERVATIONS...

CITY           SKY/WX    TMP DP  RH WIND       PRES   REMARKS
LENORA KS        N/A     19  32 100 CALM        N/A
TRENTON NEB      N/A     21  32 100 S8          N/A
YUMA CO        CLOUDY    18   5  57 S14       30.11S WCI   4
$$




USA.gov is the U.S. government's official web portal to all federal, state and local government web resources and services.